TimeMDT,TemperatureF,Dew PointF,Humidity,Sea Level PressureIn,VisibilityMPH,Wind Direction,Wind SpeedMPH,Gust SpeedMPH,PrecipitationIn,Events,Conditions,WindDirDegrees,DateUTC
12:53 AM,27.0,21.0,78,30.01,10.0,WNW,6.9,-,N/A,,Clear,300,2013-03-19 06:53:00
1:53 AM,24.1,19.9,84,30.04,10.0,NW,3.5,-,N/A,,Clear,310,2013-03-19 07:53:00
2:53 AM,24.1,19.9,84,30.07,10.0,West,4.6,-,N/A,,Clear,280,2013-03-19 08:53:00
3:53 AM,24.1,19.0,81,30.10,10.0,NW,12.7,-,N/A,,Scattered Clouds,320,2013-03-19 09:53:00
4:53 AM,23.0,16.0,74,30.15,10.0,North,8.1,-,N/A,,Overcast,360,2013-03-19 10:53:00
5:53 AM,21.9,12.9,68,30.18,10.0,North,10.4,-,N/A,,Overcast,360,2013-03-19 11:53:00
6:53 AM,19.0,8.1,62,30.25,10.0,NNW,9.2,-,N/A,,Overcast,340,2013-03-19 12:53:00
7:53 AM,18.0,8.1,65,30.29,10.0,NW,6.9,-,N/A,,Overcast,320,2013-03-19 13:53:00
8:53 AM,19.0,6.1,57,30.31,10.0,NNW,12.7,-,N/A,,Overcast,340,2013-03-19 14:53:00
9:53 AM,21.0,7.0,55,30.35,10.0,NNW,9.2,-,N/A,,Scattered Clouds,330,2013-03-19 15:53:00
10:53 AM,23.0,8.1,53,30.38,10.0,NNW,10.4,-,N/A,,Clear,330,2013-03-19 16:53:00
11:53 AM,27.0,8.1,45,30.39,10.0,North,11.5,-,N/A,,Clear,350,2013-03-19 17:53:00
12:53 PM,28.0,8.1,43,30.40,10.0,NW,12.7,-,N/A,,Clear,310,2013-03-19 18:53:00
1:53 PM,30.0,7.0,38,30.41,10.0,NW,10.4,-,N/A,,Partly Cloudy,320,2013-03-19 19:53:00
2:53 PM,32.0,5.0,32,30.41,10.0,NNW,9.2,18.4,N/A,,Clear,330,2013-03-19 20:53:00
3:53 PM,34.0,6.1,31,30.40,10.0,NNW,8.1,17.3,N/A,,Clear,330,2013-03-19 21:53:00
4:53 PM,35.1,7.0,31,30.40,10.0,North,9.2,-,N/A,,Clear,350,2013-03-19 22:53:00
5:53 PM,34.0,6.1,31,30.41,10.0,NNW,6.9,-,N/A,,Clear,330,2013-03-19 23:53:00
6:53 PM,32.0,7.0,35,30.40,10.0,NE,3.5,-,N/A,,Clear,50,2013-03-20 00:53:00
7:53 PM,28.0,7.0,41,30.42,10.0,East,5.8,-,N/A,,Clear,90,2013-03-20 01:53:00
8:53 PM,26.1,7.0,44,30.41,10.0,East,5.8,-,N/A,,Clear,100,2013-03-20 02:53:00
9:53 PM,24.1,8.1,51,30.41,10.0,SE,4.6,-,N/A,,Clear,140,2013-03-20 03:53:00
10:53 PM,23.0,9.0,55,30.41,10.0,SSE,8.1,-,N/A,,Clear,150,2013-03-20 04:53:00
11:53 PM,21.9,10.0,60,30.39,10.0,SE,10.4,-,N/A,,Clear,140,2013-03-20 05:53:00